DW0226 Weather Reports


Display with metric or nautical units.
time (UTC)temp
F
wind
direction
speed
MPH
gust
MPH
rain 1hr
in
rain 24hr
in
rain mn
in
humidity
%
barometer
mb
20260831231016 83 0.0 0.0 0.00 0.00 0.00 81 1016.5
20260831230016 83 0.0 2.0 0.00 0.00 0.00 80 1016.5
20260831225016 84 0.0 1.0 0.00 0.00 0.00 80 1016.5
20260831224036 85 68 1.0 2.0 0.00 0.00 0.00 79 1016.5
20260831223016 85 0.0 2.0 0.00 0.00 0.00 78 1016.6
20260831222016 86 0.0 2.0 0.00 0.00 0.00 77 1016.7
20260831221016 86 0.0 3.0 0.00 0.00 0.00 76 1016.7
20260831220016 87 68 1.0 3.0 0.00 0.00 0.00 77 1016.5
20260831215016 88 68 1.0 5.0 0.00 0.00 0.00 74 1016.6
20260831214016 89 0.0 3.0 0.00 0.00 0.00 73 1016.5
20260831213016 88 0.0 2.0 0.00 0.00 0.00 75 1016.5
20260831212017 87 0.0 2.0 0.00 0.00 0.00 79 1016.4
20260831211036 86 270 1.0 3.0 0.00 0.00 0.00 77 1016.5
20260831210037 86 270 1.0 3.0 0.00 0.00 0.00 77 1016.4
20260831205016 87 270 1.0 2.0 0.00 0.00 0.00 76 1016.1
20260831204016 87 293 2.0 4.0 0.00 0.00 0.00 75 1016.1
20260831203016 87 225 2.0 3.0 0.00 0.00 0.00 75 1015.9
20260831202015 87 225 1.0 3.0 0.00 0.00 0.00 76 1016.2
20260831201016 87 225 2.0 3.0 0.00 0.00 0.00 75 1016.4
20260831200037 87 270 1.0 4.0 0.00 0.00 0.00 75 1016.6
20260831195016 88 270 2.0 5.0 0.00 0.00 0.00 73 1016.5
20260831194015 88 270 3.0 5.0 0.00 0.00 0.00 72 1016.4
20260831193017 89 270 4.0 7.0 0.00 0.00 0.00 71 1016.6
20260831192016 88 270 4.0 7.0 0.00 0.00 0.00 73 1016.6
20260831191017 88 270 5.0 10.0 0.00 0.00 0.00 73 1016.7
20260831190015 89 270 3.0 7.0 0.00 0.00 0.00 74 1016.7
20260831185037 88 270 4.0 10.0 0.00 0.00 0.00 73 1016.9
20260831184016 88 225 4.0 7.0 0.00 0.00 0.00 74 1017.0
20260831183015 88 248 3.0 6.0 0.00 0.00 0.00 75 1017.0
20260831182037 88 248 3.0 6.0 0.00 0.00 0.00 75 1016.9
20260831181016 88 270 4.0 9.0 0.00 0.00 0.00 76 1016.9
20260831180022 87 248 4.0 6.0 0.00 0.00 0.00 76 1017.1
20260831175016 87 248 4.0 7.0 0.00 0.00 0.00 77 1017.2
20260831174017 87 270 4.0 7.0 0.00 0.00 0.00 76 1017.2
20260831173017 87 270 4.0 7.0 0.00 0.00 0.00 76 1017.2
20260831172036 86 270 3.0 5.0 0.00 0.00 0.00 77 1017.3
20260831171017 86 293 3.0 5.0 0.00 0.00 0.00 78 1017.6
20260831170020 86 270 3.0 7.0 0.00 0.00 0.00 80 1017.5
20260831165015 85 293 4.0 7.0 0.00 0.00 0.00 79 1017.6
20260831164015 86 293 3.0 7.0 0.00 0.00 0.00 79 1017.6
20260831163015 85 248 3.0 7.0 0.00 0.00 0.00 80 1017.8
20260831162016 85 203 3.0 7.0 0.00 0.00 0.00 81 1017.8
20260831161015 85 225 3.0 6.0 0.00 0.00 0.00 80 1017.8
20260831160036 85 248 3.0 5.0 0.00 0.00 0.00 80 1017.8
20260831155025 87 225 2.0 6.0 0.00 0.00 0.00 76 1017.8
20260831154015 87 135 1.0 2.0 0.00 0.00 0.00 73 1017.7
20260831153017 87 113 1.0 4.0 0.00 0.00 0.00 72 1017.6
20260831152015 88 90 2.0 6.0 0.00 0.00 0.00 72 1017.6
20260831151016 88 45 1.0 3.0 0.00 0.00 0.00 73 1017.6
20260831150017 87 68 1.0 7.0 0.00 0.00 0.00 76 1017.6
20260831145016 86 0.0 2.0 0.00 0.00 0.00 76 1017.6
20260831144016 85 68 2.0 6.0 0.00 0.00 0.00 77 1017.6
20260831143016 87 90 1.0 4.0 0.00 0.00 0.00 75 1017.7
20260831142016 86 0.0 2.0 0.00 0.00 0.00 78 1017.6
20260831141017 86 90 1.0 4.0 0.00 0.00 0.00 76 1017.7
20260831140015 85 0.0 2.0 0.00 0.00 0.00 78 1017.7
20260831135017 84 0.0 2.0 0.00 0.00 0.00 80 1017.7
20260831134017 82 0.0 2.0 0.00 0.00 0.00 84 1017.8
20260831133015 81 293 1.0 5.0 0.00 0.00 0.00 84 1017.9
20260831132518 81 315 1.0 2.0 0.00 0.00 0.00 85 1017.9
20260831131515 80 248 1.0 4.0 0.00 0.00 0.00 87 1017.9
20260831130536 79 293 2.0 4.0 0.00 0.00 0.00 88 1017.9
20260831125515 78 315 1.0 2.0 0.00 0.00 0.00 89 1017.6
20260831124516 77 315 1.0 3.0 0.00 0.00 0.00 90 1017.7
20260831123516 77 315 2.0 3.0 0.00 0.00 0.00 92 1017.8
20260831122518 76 248 1.0 3.0 0.00 0.00 0.00 93 1017.6
20260831121517 76 0.0 1.0 0.00 0.00 0.00 94 1017.5
20260831120516 76 0.0 1.0 0.00 0.00 0.00 95 1017.5
20260831115515 74 0.0 0.0 0.00 0.00 0.00 96 1017.6
20260831115019 74 0.0 0.0 0.00 0.00 0.00 96 1017.6
20260831114016 73 0.0 0.0 0.00 0.00 0.00 97 1017.5
20260831113016 72 0.0 0.0 0.00 0.00 0.00 97 1017.5
20260831112036 72 0.0 0.0 0.00 0.00 0.00 96 1017.3
20260831111016 71 0.0 0.0 0.00 0.00 0.00 96 1017.2
20260831110039 71 0.0 0.0 0.00 0.00 0.00 96 1017.2
20260831105017 71 0.0 0.0 0.00 0.00 0.00 95 1016.8
20260831104015 72 0.0 0.0 0.00 0.00 0.00 95 1016.6
20260831103016 72 0.0 0.0 0.00 0.00 0.00 95 1016.7
20260831102015 72 0.0 0.0 0.00 0.00 0.00 95 1016.8
20260831101036 72 0.0 0.0 0.00 0.00 0.00 94 1016.8
20260831100016 72 0.0 1.0 0.00 0.00 0.00 94 1016.6
20260831095016 72 0.0 2.0 0.00 0.00 0.00 95 1016.5
20260831094015 73 0.0 1.0 0.00 0.00 0.00 94 1016.5
20260831093016 73 0.0 2.0 0.00 0.00 0.00 95 1016.5
20260831092016 73 0.0 0.0 0.00 0.00 0.00 95 1016.5
20260831091016 72 0.0 0.0 0.00 0.00 0.00 95 1016.4
20260831090017 73 0.0 0.0 0.00 0.00 0.00 94 1016.5
20260831085015 73 0.0 0.0 0.00 0.00 0.00 95 1016.5
20260831084035 73 0.0 0.0 0.00 0.00 0.00 94 1016.6
20260831083015 73 0.0 0.0 0.00 0.00 0.00 94 1016.5
20260831082015 74 0.0 0.0 0.00 0.00 0.00 94 1016.5
20260831081016 74 0.0 0.0 0.00 0.00 0.00 94 1016.6
20260831080016 74 0.0 0.0 0.00 0.00 0.00 94 1016.6
20260831075017 74 0.0 0.0 0.00 0.00 0.00 94 1016.7
20260831074015 74 0.0 0.0 0.00 0.00 0.00 94 1016.5
20260831073027 74 0.0 0.0 0.00 0.00 0.00 94 1016.6
20260831072056 74 0.0 0.0 0.00 0.00 0.00 93 1016.7
20260831071015 74 0.0 0.0 0.00 0.00 0.00 93 1016.8
20260831070015 75 0.0 1.0 0.00 0.00 0.00 93 1016.8
20260831065016 75 0.0 0.0 0.00 0.00 0.00 93 1016.9
20260831064015 75 0.0 0.0 0.00 0.00 0.00 94 1016.9
20260831063015 75 0.0 3.0 0.00 0.00 0.00 94 1016.8
20260831062016 75 248 1.0 3.0 0.00 0.00 0.00 95 1016.8
20260831061015 75 0.0 1.0 0.00 0.00 0.00 95 1016.7
20260831060017 74 0.0 2.0 0.00 0.00 0.00 95 1016.9
20260831055015 74 0.0 0.0 0.00 0.00 0.00 95 1017.0
20260831054017 74 0.0 0.0 0.00 0.00 0.00 95 1017.0
20260831053047 74 0.0 0.0 0.00 0.00 0.00 94 1017.1
20260831052015 74 0.0 0.0 0.00 0.00 0.00 94 1017.1
20260831051016 74 0.0 0.0 0.00 0.00 0.00 95 1017.2
20260831050015 73 0.0 0.0 0.00 0.00 0.00 94 1017.2
20260831045015 73 0.0 0.0 0.00 0.00 0.00 94 1017.3
20260831044015 73 0.0 0.0 0.00 0.00 0.00 94 1017.1
20260831043015 73 0.0 0.0 0.00 0.00 0.00 93 1017.1
20260831042015 74 0.0 0.0 0.00 0.00 0.00 93 1017.2
20260831041015 74 0.0 0.0 0.00 0.00 0.00 92 1017.3
20260831040017 74 0.0 0.0 0.00 0.00 0.00 93 1017.4
20260831035016 74 0.0 0.0 0.00 0.00 0.00 91 1017.6
20260831034016 75 0.0 0.0 0.00 0.00 0.00 91 1017.6
20260831033016 75 0.0 0.0 0.00 0.00 0.00 91 1017.9
20260831032016 76 0.0 0.0 0.00 0.00 0.00 90 1018.0
20260831031017 77 0.0 0.0 0.00 0.00 0.00 90 1018.0
20260831030016 77 0.0 1.0 0.00 0.00 0.00 89 1018.0
20260831025016 78 0.0 0.0 0.00 0.00 0.00 89 1018.0
20260831024016 78 0.0 1.0 0.00 0.00 0.00 88 1018.1
20260831023019 79 0.0 2.0 0.00 0.00 0.00 87 1018.2
20260831022017 79 0.0 3.0 0.00 0.00 0.00 87 1018.1
20260831021023 79 0.0 1.0 0.00 0.00 0.00 87 1018.1
20260831020025 79 0.0 1.0 0.00 0.00 0.00 87 1018.0
20260831015016 79 0.0 3.0 0.00 0.00 0.00 87 1018.1
20260831014016 79 225 1.0 3.0 0.00 0.00 0.00 88 1018.1
20260831013017 79 203 1.0 4.0 0.00 0.00 0.00 89 1017.9
20260831012017 78 158 1.0 3.0 0.00 0.00 0.00 90 1017.9
20260831011018 77 0.0 1.0 0.00 0.00 0.00 90 1017.8
20260831010016 78 0.0 0.0 0.00 0.00 0.00 90 1017.8
20260831005016 78 0.0 2.0 0.00 0.00 0.00 90 1017.7
20260831004017 78 0.0 0.0 0.00 0.00 0.00 89 1017.7
20260831003017 78 0.0 0.0 0.00 0.00 0.00 89 1017.7
20260831002016 79 0.0 0.0 0.00 0.00 0.00 88 1017.7
20260831001016 79 0.0 0.0 0.00 0.00 0.00 87 1017.7
20260831000123 80 0.0 0.0 0.00 0.00 0.00 87 1017.6
20260830235016 80 0.0 0.0 0.00 0.00 0.00 87 1017.5
20260830234017 80 0.0 0.0 0.00 0.00 0.00 86 1017.2
20260830233016 81 0.0 0.0 0.00 0.00 0.00 85 1017.1
20260830232017 82 0.0 1.0 0.00 0.00 0.00 84 1017.4